Location: Cahoon Acres
(40.8736°N, 111.8994°W)
Time: 19:39:17
(UTC+00:00)

Transit 2A Rocket - All Passes

Search period start: 25 May 2020 00:00
Search period end: 04 June 2020 00:00
Orbit: 585 x 917 km, 66.7° (Epoch: 22 May)

Date Brightness Start Highest point End Pass type
(mag) Time Alt. Az. Time Alt. Az. Time Alt. Az.
25 May - 06:19:57 10° S 06:24:20 35° ESE 06:29:09 10° NE visible
25 May - 08:02:30 10° WSW 08:06:57 32° NW 08:11:50 10° NNE visible
25 May - 15:02:42 10° NNW 15:08:11 35° NE 15:13:44 10° ESE daylight
25 May - 16:45:13 10° NW 16:50:58 44° WSW 16:56:41 10° S daylight
26 May - 05:38:36 10° SSE 05:42:06 20° ESE 05:45:50 10° ENE visible
26 May - 07:19:22 10° SW 07:24:10 52° NW 07:29:30 10° NNE visible
26 May - 09:06:50 10° NW 09:08:14 11° NNW 09:09:40 10° NNW visible
26 May - 14:20:31 10° N 14:25:18 24° NE 14:30:06 10° E daylight
26 May - 16:02:26 10° NNW 16:08:30 73° WSW 16:14:34 10° SSE daylight
26 May - 17:49:06 10° W 17:50:08 10° W 17:51:10 10° WSW daylight
27 May - 04:59:04 10° ESE 04:59:59 10° E 05:00:55 10° E visible
27 May - 06:36:38 10° SSW 06:41:32 88° WNW 06:47:00 10° NNE visible
27 May - 08:21:52 10° WNW 08:25:04 16° NW 08:28:27 10° N visible
27 May - 13:38:35 10° N 13:42:15 16° NE 13:45:57 10° ENE daylight
27 May - 15:19:51 10° NNW 15:25:56 72° ENE 15:32:01 10° SE daylight
27 May - 17:03:51 10° WNW 17:07:59 19° WSW 17:12:06 10° SSW daylight
28 May - 05:54:20 10° S 05:59:03 53° ESE 06:04:18 10° NE visible
28 May - 07:37:55 10° W 07:42:03 24° NW 07:46:30 10° N visible
28 May - 12:57:17 10° NNE 12:59:03 11° NNE 13:00:51 10° NE daylight
28 May - 14:37:25 10° NNW 14:43:14 46° NE 14:49:05 10° SE daylight
28 May - 16:20:24 10° NW 16:25:44 32° WSW 16:31:00 10° S daylight
29 May - 05:12:32 10° SSE 05:16:44 29° ESE 05:21:18 10° NE visible
29 May - 06:54:30 10° WSW 06:59:09 37° NW 07:04:17 10° NNE visible
29 May - 13:55:08 10° NNW 14:00:25 30° NE 14:05:45 10° ESE daylight
29 May - 15:37:26 10° NW 15:43:21 53° WSW 15:49:13 10° S daylight
30 May - 04:31:30 10° SE 04:34:33 16° ESE 04:37:45 10° ENE visible
30 May - 06:11:31 10° SW 06:16:25 62° WNW 06:21:53 10° NNE visible
30 May - 07:58:00 10° WNW 08:00:19 13° NW 08:02:43 10° N visible
30 May - 13:13:01 10° N 13:17:28 21° NE 13:21:57 10° E daylight
30 May - 14:54:43 10° NNW 15:00:51 85° WSW 15:06:57 10° SSE daylight
30 May - 16:39:56 10° WNW 16:42:36 13° WSW 16:45:16 10° SW daylight
31 May - 05:28:56 10° SSW 05:33:51 77° ESE 05:39:19 10° NNE visible
31 May - 07:13:34 10° W 07:17:12 19° NW 07:21:04 10° N visible
31 May - 12:31:11 10° N 12:34:22 14° NE 12:37:34 10° ENE daylight
31 May - 14:12:11 10° NNW 14:18:14 62° ENE 14:24:16 10° SE daylight
31 May - 15:55:48 10° WNW 16:00:26 23° WSW 16:05:01 10° SSW daylight
01 Jun - 04:46:47 10° S 04:51:25 43° ESE 04:56:32 10° NE visible
01 Jun - 06:29:50 10° WSW 06:34:13 28° NW 06:38:59 10° NNE visible
01 Jun - 13:29:48 10° NNW 13:35:30 40° NE 13:41:11 10° ESE daylight
01 Jun - 15:12:33 10° NW 15:18:08 38° WSW 15:23:39 10° S daylight
02 Jun - 04:05:12 10° SSE 04:09:08 24° ESE 04:13:24 10° NE visible
02 Jun - 05:46:34 10° SW 05:51:22 45° NW 05:56:42 10° NNE visible
02 Jun - 12:47:35 10° N 12:52:38 27° NE 12:57:42 10° ESE daylight
02 Jun - 14:29:41 10° NW 14:35:43 63° WSW 14:41:41 10° SSE daylight
03 Jun - 03:24:37 10° SE 03:26:59 13° ESE 03:29:26 10° ENE visible
03 Jun - 05:03:43 10° SW 05:08:42 75° WNW 05:14:15 10° NNE visible
03 Jun - 06:49:28 10° WNW 06:52:25 15° NW 06:55:29 10° N visible
03 Jun - 12:05:32 10° N 12:09:37 18° NE 12:13:44 10° E daylight
03 Jun - 13:47:02 10° NNW 13:53:11 83° ENE 13:59:16 10° SSE daylight
03 Jun - 15:31:31 10° WNW 15:35:05 16° WSW 15:38:36 10° SW daylight
